Weather History for Oxford, NC

Change the Weather History Date:

Tuesday, February 25, 2014

  Actual Average (KTDF) Record (KTDF)
Temperature  
Mean Temperature 39 °F -  
Max Temperature 48 °F 54 °F 79 °F (1982)
Min Temperature 30 °F 31 °F 0 °F (1967)
Degree Days  
Heating Degree Days 26    
Moisture  
Dew Point 20 °F    
Average Humidity 48    
Maximum Humidity 73    
Minimum Humidity 22    
Precipitation  
Precipitation 0.00 in - - ()
Sea Level Pressure  
Sea Level Pressure 30.03 in    
Wind  
Wind Speed 2 mph (North)    
Max Wind Speed 8 mph    
Max Gust Speed -    
Visibility 10 miles    
Events      
Averages and records for this station are not official NWS values.
T = Trace of Precipitation, MM = Missing Value Source: NWS Daily Summary

Daily Weather History Graph

Daily Weather History Graph

Search for Another Location

Airport:

Trip Planner

Search our weather history database for the weather conditions in past years. The results will help you decide how hot, cold, wet, or windy it might be!

Date:

Astronomy

Feb. 25, 2014 Rise Set
Actual Time 6:49 AM EST 6:05 PM EST
Civil Twilight 6:23 AM EST 6:30 PM EST
Nautical Twilight 5:53 AM EST 7:00 PM EST
Astronomical Twilight 5:24 AM EST 7:30 PM EST
Moon 3:38 AM EST (2/25) 2:13 PM EST (2/25)
Length of Visible Light 12h 07m
Length of Day
11h 15m
Waning Crescent, 18% of the Moon is Illuminated
Feb 25
Waning Crescent
Mar 1
New
Mar 8
First Quarter
Mar 16
Full
Mar 23
Last Quarter

Hourly Weather History & Observations

Time (EST) Temp. Windchill Dew Point Humidity Pressure Visibility Wind Dir Wind Speed Gust Speed Precip Events Conditions
12:15 AM 35.4 °F - 21.7 °F 58% 30.13 in 10.0 mi Calm Calm - N/A   Clear
12:35 AM 34.5 °F - 11.8 °F 39% 30.13 in 10.0 mi Calm Calm - N/A   Clear
12:55 AM 33.8 °F 29.6 °F 20.1 °F 57% 30.12 in 10.0 mi North 4.6 mph - N/A   Clear
1:15 AM 33.1 °F - 18.3 °F 55% 30.12 in 10.0 mi Calm Calm - N/A   Clear
1:35 AM 33.3 °F - 16.5 °F 50% 30.11 in 10.0 mi Calm Calm - N/A   Clear
1:55 AM 34.3 °F - 14.4 °F 44% 30.10 in 10.0 mi Calm Calm - N/A   Clear
2:15 AM 34.9 °F - 14.9 °F 44% 30.10 in 10.0 mi Calm Calm - N/A   Clear
2:35 AM 33.8 °F - 17.8 °F 52% 30.09 in 10.0 mi Calm Calm - N/A   Clear
2:55 AM 30.6 °F - 18.5 °F 61% 30.09 in 10.0 mi Calm Calm - N/A   Clear
3:15 AM 33.4 °F - 14.9 °F 47% 30.08 in 10.0 mi Calm Calm - N/A   Clear
4:55 AM 33.3 °F - 9.5 °F 37% 30.07 in 10.0 mi Calm Calm - N/A   Clear
5:15 AM 32.2 °F - 15.6 °F 51% 30.06 in 10.0 mi Calm Calm - N/A   Clear
5:35 AM 32.9 °F - 12.7 °F 43% 30.07 in 10.0 mi Calm Calm - N/A   Clear
5:55 AM 31.5 °F - 15.4 °F 52% 30.07 in 10.0 mi Calm Calm - N/A   Clear
6:15 AM 31.1 °F - 16.2 °F 54% 30.08 in 10.0 mi Calm Calm - N/A   Mostly Cloudy
6:35 AM 30.0 °F - 19.8 °F 66% 30.08 in 10.0 mi Calm Calm - N/A   Mostly Cloudy
6:55 AM 32.0 °F 27.5 °F 20.7 °F 63% 30.07 in 10.0 mi East 4.6 mph - N/A   Mostly Cloudy
7:15 AM 33.4 °F 29.1 °F 25.7 °F 73% 30.07 in 10.0 mi ESE 4.6 mph - N/A   Scattered Clouds
7:35 AM 34.9 °F 30.8 °F 26.6 °F 72% 30.07 in 10.0 mi ESE 4.6 mph - N/A   Clear
7:55 AM 36.0 °F 32.1 °F 28.0 °F 73% 30.07 in 10.0 mi ESE 4.6 mph - N/A   Mostly Cloudy
8:15 AM 36.9 °F 33.1 °F 28.6 °F 72% 30.07 in 10.0 mi ESE 4.6 mph - N/A   Overcast
8:35 AM 37.4 °F 34.9 °F 28.9 °F 71% 30.08 in 10.0 mi ESE 3.5 mph - N/A   Overcast
8:55 AM 37.6 °F - 28.8 °F 70% 30.08 in 10.0 mi Calm Calm - N/A   Overcast
9:15 AM 38.1 °F - 30.0 °F 73% 30.07 in 10.0 mi Calm Calm - N/A   Overcast
9:35 AM 38.7 °F - 30.2 °F 72% 30.06 in 10.0 mi Calm Calm - N/A   Overcast
9:55 AM 39.2 °F - 29.8 °F 69% 30.06 in 10.0 mi Calm Calm - N/A   Overcast
10:15 AM 39.7 °F - 29.5 °F 67% 30.05 in 10.0 mi Calm Calm - N/A   Overcast
10:35 AM 40.3 °F - 29.1 °F 64% 30.04 in 10.0 mi Calm Calm - N/A   Overcast
10:55 AM 40.6 °F 38.6 °F 28.6 °F 62% 30.04 in 10.0 mi North 3.5 mph - N/A   Overcast
11:15 AM 40.5 °F 37.3 °F 28.0 °F 61% 30.05 in 10.0 mi North 4.6 mph - N/A   Overcast
11:35 AM 40.6 °F 37.5 °F 28.2 °F 61% 30.05 in 10.0 mi North 4.6 mph - N/A   Overcast
11:50 AM 41.4 °F 38.4 °F 27.5 °F 58% 30.04 in 10.0 mi North 4.6 mph - N/A   Overcast
12:20 PM 44.8 °F 42.4 °F 25.5 °F 47% 30.03 in 10.0 mi North 4.6 mph - N/A   Mostly Cloudy
12:35 PM 45.1 °F 42.0 °F 20.5 °F 38% 30.02 in 10.0 mi NNE 5.8 mph - N/A   Mostly Cloudy
1:00 PM 45.1 °F 40.8 °F 19.8 °F 36% 30.01 in 10.0 mi North 8.1 mph - N/A   Overcast
1:15 PM 44.2 °F 40.3 °F 18.1 °F 35% 30.00 in 10.0 mi North 6.9 mph - N/A   Overcast
1:35 PM 45.5 °F 41.8 °F 19.4 °F 35% 29.99 in 10.0 mi North 6.9 mph - N/A   Scattered Clouds
1:55 PM 46.0 °F 42.5 °F 19.6 °F 35% 29.98 in 10.0 mi North 6.9 mph - N/A   Clear
2:15 PM 46.0 °F 41.9 °F 19.4 °F 35% 29.98 in 10.0 mi NNW 8.1 mph - N/A   Clear
2:35 PM 46.2 °F 44.1 °F 18.7 °F 33% 29.97 in 10.0 mi NNE 4.6 mph - N/A   Clear
2:55 PM 47.3 °F - 16.7 °F 30% 29.97 in 10.0 mi North 8.1 mph - N/A   Clear
3:15 PM 47.5 °F - 14.0 °F 26% 29.97 in 10.0 mi North 4.6 mph - N/A   Clear
3:35 PM 48.2 °F - 15.6 °F 27% 29.97 in 10.0 mi Calm Calm - N/A   Clear
3:55 PM 47.8 °F - 12.2 °F 24% 29.96 in 10.0 mi North 8.1 mph - N/A   Clear
4:15 PM 48.2 °F - 11.1 °F 22% 29.96 in 10.0 mi NNW 3.5 mph - N/A   Clear
4:35 PM 47.5 °F - 12.2 °F 24% 29.97 in 10.0 mi Calm Calm - N/A   Clear
4:55 PM 47.3 °F - 12.4 °F 25% 29.97 in 10.0 mi NNW 5.8 mph - N/A   Clear
5:15 PM 47.3 °F - 12.0 °F 24% 29.97 in 10.0 mi North 5.8 mph - N/A   Clear
5:40 PM 45.7 °F 43.4 °F 12.6 °F 26% 29.98 in 10.0 mi NW 4.6 mph - N/A   Clear
5:55 PM 44.6 °F 43.1 °F 12.9 °F 28% 29.98 in 10.0 mi NNW 3.5 mph - N/A   Clear
6:15 PM 42.8 °F - 14.9 °F 32% 29.97 in 10.0 mi Calm Calm - N/A   Clear
6:35 PM 41.4 °F - 16.0 °F 36% 29.98 in 10.0 mi Calm Calm - N/A   Clear
6:55 PM 40.3 °F - 17.1 °F 39% 29.99 in 10.0 mi Calm Calm - N/A   Clear
7:15 PM 37.2 °F - 18.3 °F 46% 29.99 in 10.0 mi Calm Calm - N/A   Clear
7:35 PM 37.8 °F - 24.1 °F 58% 29.99 in 10.0 mi Calm Calm - N/A   Clear
7:55 PM 34.5 °F - 19.8 °F 55% 29.99 in 10.0 mi Calm Calm - N/A   Clear
8:15 PM 37.4 °F 33.8 °F 16.9 °F 43% 30.00 in 10.0 mi North 4.6 mph - N/A   Clear
8:35 PM 37.6 °F 35.1 °F 15.6 °F 41% 30.00 in 10.0 mi North 3.5 mph - N/A   Clear
8:55 PM 36.3 °F 32.5 °F 20.3 °F 52% 30.00 in 10.0 mi North 4.6 mph - N/A   Clear
9:15 PM 36.0 °F 31.1 °F 18.1 °F 48% 30.01 in 10.0 mi North 5.8 mph - N/A   Clear
9:35 PM 37.2 °F - 17.6 °F 45% 30.02 in 10.0 mi Calm Calm - N/A   Clear
9:55 PM 36.3 °F 33.7 °F 18.3 °F 48% 30.01 in 10.0 mi North 3.5 mph - N/A   Clear
10:15 PM 36.1 °F 32.3 °F 17.4 °F 47% 30.00 in 10.0 mi North 4.6 mph - N/A   Clear
10:35 PM 35.6 °F 32.8 °F 18.1 °F 49% 29.99 in 10.0 mi North 3.5 mph - N/A   Clear
10:55 PM 34.9 °F 32.0 °F 18.3 °F 51% 29.99 in 10.0 mi North 3.5 mph - N/A   Clear
11:15 PM 34.5 °F - 18.5 °F 52% 29.99 in 10.0 mi Calm Calm - N/A   Clear
11:35 PM 33.6 °F 30.6 °F 19.0 °F 55% 29.99 in 10.0 mi North 3.5 mph - N/A   Clear
11:55 PM 33.4 °F 30.4 °F 19.2 °F 56% 29.99 in 10.0 mi North 3.5 mph - N/A   Clear